Powrót do katalogu

ATLAS 5 CENTAUR DEB

LostHEO
NORAD 43953·DEBRIS·🇺🇸 United States

Wystrzelony Sep 17, 2014 z Cape Canaveral Space Force Station

Loading…

Następne Przeloty (najbliższe 24 godziny)

TLE

NieaktualneSource: Space-Track

Epoka: Dec 10, 2022, 09:28 UTC

1 43953U 14055G   22344.39452669 -.00000098  00000-0  00000+0 0  9995
2 43953  21.6814 267.9831 4182318 311.1314  19.7238  1.86986573 29133

Śledź ATLAS 5 CENTAUR DEB w czasie rzeczywistym z AllMySat

Download on the App Store